Lambertville, MI

2:39 AM EST on February 23, 2018 (GMT -0500)
Lambertville

Weather History for KDUH - December, 2012

Change the Weather History Date:

Tuesday, December 11, 2012

  Actual Average (KTOL) Record (KTOL)
Temperature  
Mean Temperature 32 °F -  
Max Temperature 36 °F 35 °F 64 °F (1931)
Min Temperature 28 °F 21 °F -12 °F (1977)
Degree Days  
Heating Degree Days 33    
Moisture  
Dew Point 23 °F    
Average Humidity 70    
Maximum Humidity 81    
Minimum Humidity 55    
Precipitation  
Precipitation 0.00 in - - ()
Sea Level Pressure  
Sea Level Pressure 30.03 in    
Wind  
Wind Speed 4 mph (WSW)    
Max Wind Speed 13 mph    
Max Gust Speed 18 mph    
Visibility 10 miles    
Events Snow    
Averages and records for this station are not official NWS values.
T = Trace of Precipitation, MM = Missing Value Source: NWS Daily Summary

Daily Weather History Graph

Daily Weather History Graph

Search for Another Location

Airport or City:

Trip Planner

Search our weather history database for the weather conditions in past years. The results will help you decide how hot, cold, wet, or windy it might be!

Date:

Astronomy

Dec. 11, 2012 Rise Set
Actual Time 7:52 AM EST 5:04 PM EST
Civil Twilight 7:20 AM EST 5:35 PM EST
Nautical Twilight 6:45 AM EST 6:10 PM EST
Astronomical Twilight 6:11 AM EST 6:44 PM EST
Moon 5:44 AM EST (12/11) 3:42 PM EST (12/11)
Length of Visible Light 10h 14m
Length of Day
9h 12m
Waning Crescent, 4% of the Moon is Illuminated
Dec 11
Waning Crescent
Dec 13
New
Dec 20
First Quarter
Dec 28
Full
Jan 4
Last Quarter

Hourly Weather History & Observations

Time (EST) Temp. Windchill Dew Point Humidity Pressure Visibility Wind Dir Wind Speed Gust Speed Precip Events Conditions
12:14 AM 33.8 °F - 28.0 °F 79% 29.87 in 10.0 mi Calm Calm - N/A   Overcast
12:34 AM 33.8 °F 30.8 °F 27.7 °F 78% 29.88 in 10.0 mi WSW 3.5 mph - N/A   Overcast
12:55 AM 33.1 °F - 27.3 °F 79% 29.87 in 10.0 mi Calm Calm - N/A   Overcast
1:14 AM 33.1 °F 30.0 °F 27.0 °F 78% 29.87 in 10.0 mi WSW 3.5 mph - N/A   Overcast
1:34 AM 33.3 °F 28.9 °F 26.6 °F 77% 29.88 in 10.0 mi West 4.6 mph - N/A   Overcast
1:55 AM 32.9 °F 29.8 °F 25.5 °F 74% 29.89 in 10.0 mi WNW 3.5 mph - N/A   Overcast
2:14 AM 32.5 °F 28.1 °F 25.0 °F 74% 29.89 in 10.0 mi WNW 4.6 mph - N/A   Overcast
2:34 AM 32.2 °F 25.8 °F 25.3 °F 76% 29.90 in 10.0 mi West 6.9 mph - N/A   Overcast
2:55 AM 32.0 °F 28.7 °F 23.9 °F 72% 29.90 in 10.0 mi West 3.5 mph - N/A   Overcast
3:14 AM 31.8 °F 28.5 °F 23.9 °F 73% 29.91 in 10.0 mi West 3.5 mph - N/A   Mostly Cloudy
3:35 AM 30.7 °F - 24.1 °F 76% 29.92 in 10.0 mi Calm Calm - N/A   Scattered Clouds
3:54 AM 30.0 °F - 23.9 °F 78% 29.92 in 10.0 mi Calm Calm - N/A   Scattered Clouds
4:14 AM 29.8 °F - 23.9 °F 79% 29.93 in 10.0 mi Calm Calm - N/A   Clear
4:35 AM 29.5 °F 25.9 °F 23.2 °F 77% 29.93 in 10.0 mi WSW 3.5 mph - N/A   Scattered Clouds
4:54 AM 30.2 °F 25.4 °F 23.4 °F 76% 29.94 in 10.0 mi West 4.6 mph - N/A   Mostly Cloudy
5:14 AM 30.7 °F 27.3 °F 23.4 °F 74% 29.95 in 10.0 mi West 3.5 mph - N/A   Overcast
5:35 AM 31.1 °F 27.7 °F 23.5 °F 74% 29.95 in 10.0 mi WNW 3.5 mph - N/A   Overcast
5:54 AM 31.1 °F 27.7 °F 23.7 °F 74% 29.95 in 10.0 mi West 3.5 mph - N/A   Overcast
6:15 AM 30.9 °F 26.2 °F 23.7 °F 75% 29.96 in 10.0 mi West 4.6 mph - N/A   Overcast
6:34 AM 30.6 °F 24.7 °F 23.7 °F 76% 29.97 in 10.0 mi West 5.8 mph - N/A   Overcast
6:54 AM 30.2 °F - 23.4 °F 76% 29.97 in 10.0 mi Calm Calm - N/A   Overcast
7:14 AM 30.0 °F - 23.0 °F 75% 29.98 in 10.0 mi Calm Calm - N/A   Scattered Clouds
7:34 AM 28.4 °F - 23.0 °F 80% 29.99 in 10.0 mi Calm Calm - N/A   Scattered Clouds
7:54 AM 28.0 °F - 23.0 °F 81% 30.00 in 10.0 mi Calm Calm - N/A   Mostly Cloudy
8:14 AM 28.9 °F - 23.7 °F 81% 30.00 in 10.0 mi Calm Calm - N/A   Overcast
8:34 AM 29.3 °F - 23.5 °F 79% 30.01 in 10.0 mi Calm Calm - N/A   Mostly Cloudy
8:55 AM 31.1 °F - 23.7 °F 74% 30.01 in 10.0 mi Calm Calm - N/A   Overcast
9:14 AM 32.0 °F 28.7 °F 23.9 °F 72% 30.03 in 10.0 mi WSW 3.5 mph - N/A   Overcast
9:34 AM 31.1 °F 26.4 °F 25.0 °F 78% 30.03 in 3.0 mi WSW 4.6 mph - N/A Snow Light Snow
9:55 AM 31.5 °F - 26.2 °F 81% 30.03 in 4.0 mi Calm Calm - N/A Snow Light Snow
10:14 AM 32.0 °F 28.7 °F 26.8 °F 81% 30.04 in 10.0 mi SSW 3.5 mph - N/A Snow Light Snow
10:35 AM 33.3 °F 25.1 °F 27.9 °F 81% 30.05 in 10.0 mi WSW 10.4 mph - N/A   Overcast
10:54 AM 34.2 °F 27.5 °F 28.2 °F 79% 30.05 in 10.0 mi West 8.1 mph - N/A   Overcast
11:14 AM 34.7 °F 30.6 °F 27.5 °F 75% 30.04 in 10.0 mi WSW 4.6 mph - N/A   Overcast
11:35 AM 35.8 °F 27.8 °F 26.1 °F 68% 30.04 in 10.0 mi West 11.5 mph 16.1 mph N/A   Overcast
11:54 AM 36.1 °F 29.3 °F 23.9 °F 61% 30.05 in 10.0 mi WSW 9.2 mph 17.3 mph N/A   Mostly Cloudy
12:14 PM 34.7 °F 26.4 °F 23.5 °F 64% 30.05 in 10.0 mi WSW 11.5 mph - N/A   Scattered Clouds
12:34 PM 35.1 °F 29.3 °F 22.8 °F 61% 30.04 in 10.0 mi West 6.9 mph - N/A   Mostly Cloudy
12:54 PM 34.5 °F 27.9 °F 23.2 °F 63% 30.05 in 10.0 mi WSW 8.1 mph 16.1 mph N/A   Overcast
1:15 PM 33.8 °F 25.8 °F 22.1 °F 62% 30.05 in 10.0 mi WSW 10.4 mph 17.3 mph N/A   Overcast
1:34 PM 34.0 °F 25.0 °F 21.6 °F 60% 30.06 in 10.0 mi WSW 12.7 mph 18.4 mph N/A   Overcast
1:54 PM 33.8 °F 26.4 °F 22.5 °F 63% 30.06 in 10.0 mi WSW 9.2 mph - N/A   Overcast
2:14 PM 33.8 °F 26.4 °F 21.7 °F 61% 30.06 in 10.0 mi SW 9.2 mph 18.4 mph N/A   Overcast
2:34 PM 33.8 °F 27.0 °F 22.1 °F 62% 30.07 in 10.0 mi WSW 8.1 mph 16.1 mph N/A   Overcast
2:55 PM 33.4 °F 25.4 °F 21.6 °F 62% 30.06 in 10.0 mi SW 10.4 mph 17.3 mph N/A   Overcast
3:14 PM 33.8 °F 27.0 °F 19.8 °F 56% 30.06 in 10.0 mi SW 8.1 mph - N/A   Overcast
3:34 PM 33.8 °F 27.0 °F 19.6 °F 56% 30.07 in 10.0 mi SW 8.1 mph - N/A   Overcast
3:54 PM 33.8 °F 25.8 °F 19.2 °F 55% 30.07 in 10.0 mi WSW 10.4 mph - N/A   Overcast
4:14 PM 33.3 °F 25.7 °F 19.2 °F 56% 30.08 in 10.0 mi WSW 9.2 mph - N/A   Overcast
4:35 PM 32.9 °F 26.7 °F 18.9 °F 56% 30.09 in 10.0 mi SW 6.9 mph - N/A   Overcast
4:54 PM 32.0 °F 24.8 °F 18.3 °F 57% 30.09 in 10.0 mi WSW 8.1 mph 17.3 mph N/A   Mostly Cloudy
5:14 PM 32.0 °F 24.2 °F 18.7 °F 58% 30.10 in 10.0 mi SW 9.2 mph - N/A   Scattered Clouds
5:34 PM 32.0 °F 24.8 °F 19.8 °F 61% 30.10 in 10.0 mi SW 8.1 mph - N/A   Mostly Cloudy
5:54 PM 31.8 °F 27.3 °F 20.3 °F 62% 30.11 in 10.0 mi SW 4.6 mph - N/A   Scattered Clouds
6:15 PM 31.3 °F 27.9 °F 20.3 °F 64% 30.11 in 10.0 mi SW 3.5 mph - N/A   Scattered Clouds
6:34 PM 31.1 °F 26.4 °F 20.3 °F 64% 30.11 in 10.0 mi SW 4.6 mph - N/A   Scattered Clouds
6:54 PM 31.1 °F 25.4 °F 20.7 °F 65% 30.11 in 10.0 mi SSW 5.8 mph - N/A   Clear
7:15 PM 30.9 °F 25.2 °F 20.5 °F 65% 30.12 in 10.0 mi SSW 5.8 mph - N/A   Clear
7:34 PM 30.6 °F 23.8 °F 20.8 °F 67% 30.12 in 10.0 mi SSW 6.9 mph - N/A   Clear
7:54 PM 30.9 °F 23.5 °F 21.2 °F 67% 30.12 in 10.0 mi SSW 8.1 mph - N/A   Clear
8:15 PM 30.7 °F 22.6 °F 21.4 °F 68% 30.13 in 10.0 mi SSW 9.2 mph - N/A   Clear
8:34 PM 30.7 °F 22.6 °F 21.6 °F 69% 30.13 in 10.0 mi SSW 9.2 mph - N/A   Clear
8:55 PM 30.9 °F 25.2 °F 21.6 °F 68% 30.14 in 10.0 mi SSW 5.8 mph - N/A   Clear
9:14 PM 30.7 °F 23.3 °F 21.6 °F 69% 30.14 in 10.0 mi SW 8.1 mph - N/A   Clear
9:34 PM 30.6 °F 23.8 °F 21.7 °F 70% 30.14 in 10.0 mi SSW 6.9 mph - N/A   Clear
9:55 PM 30.4 °F 23.6 °F 21.9 °F 71% 30.15 in 10.0 mi SSW 6.9 mph - N/A   Clear
10:14 PM 30.2 °F 22.6 °F 22.1 °F 72% 30.15 in 10.0 mi SW 8.1 mph - N/A   Clear
10:35 PM 30.0 °F 21.7 °F 22.1 °F 72% 30.16 in 10.0 mi SSW 9.2 mph - N/A   Clear
10:54 PM 30.0 °F 23.2 °F 22.5 °F 73% 30.16 in 10.0 mi SW 6.9 mph - N/A   Clear
11:14 PM 29.5 °F 23.4 °F 22.6 °F 76% 30.18 in 10.0 mi SSW 5.8 mph - N/A   Clear
11:35 PM 29.8 °F 23.0 °F 22.8 °F 75% 30.18 in 10.0 mi SW 6.9 mph - N/A   Clear
11:54 PM 29.5 °F 21.8 °F 22.8 °F 76% 30.19 in 10.0 mi SSW 8.1 mph - N/A   Clear